TimeCST,TemperatureF,Dew PointF,Humidity,Sea Level PressureIn,VisibilityMPH,Wind Direction,Wind SpeedMPH,Gust SpeedMPH,PrecipitationIn,Events,Conditions,WindDirDegrees,DateUTC
12:53 AM,21.0,15.1,78,30.30,10.0,Calm,Calm,-,N/A,,Clear,0,2012-11-14 06:53:00
1:53 AM,23.0,17.1,78,30.30,10.0,Calm,Calm,-,N/A,,Clear,0,2012-11-14 07:53:00
2:53 AM,19.9,16.0,85,30.31,10.0,WNW,3.5,-,N/A,,Clear,290,2012-11-14 08:53:00
3:53 AM,18.0,14.0,84,30.31,10.0,NNW,3.5,-,N/A,,Clear,330,2012-11-14 09:53:00
4:53 AM,18.0,15.1,88,30.30,10.0,WNW,3.5,-,N/A,,Clear,290,2012-11-14 10:53:00
5:53 AM,15.1,12.0,88,30.33,10.0,SW,4.6,-,N/A,,Clear,220,2012-11-14 11:53:00
6:53 AM,16.0,12.9,88,30.33,10.0,West,3.5,-,N/A,,Clear,280,2012-11-14 12:53:00
7:53 AM,17.1,14.0,88,30.33,10.0,Calm,Calm,-,N/A,,Clear,0,2012-11-14 13:53:00
8:53 AM,28.0,23.0,81,30.34,10.0,Calm,Calm,-,N/A,,Clear,0,2012-11-14 14:53:00
9:53 AM,35.1,26.1,70,30.34,10.0,Calm,Calm,-,N/A,,Clear,0,2012-11-14 15:53:00
10:53 AM,45.0,28.0,52,30.30,10.0,Calm,Calm,-,N/A,,Clear,0,2012-11-14 16:53:00
11:53 AM,52.0,26.1,37,30.27,10.0,SSW,9.2,-,N/A,,Clear,200,2012-11-14 17:53:00
12:53 PM,55.9,26.1,32,30.22,10.0,SW,10.4,16.1,N/A,,Clear,220,2012-11-14 18:53:00
1:53 PM,57.9,26.1,30,30.19,10.0,SSW,9.2,-,N/A,,Clear,210,2012-11-14 19:53:00
2:53 PM,57.0,25.0,29,30.17,10.0,SSW,11.5,-,N/A,,Clear,200,2012-11-14 20:53:00
3:53 PM,55.9,24.1,29,30.16,10.0,South,11.5,-,N/A,,Clear,190,2012-11-14 21:53:00
4:53 PM,48.9,24.1,38,30.17,10.0,South,4.6,-,N/A,,Clear,190,2012-11-14 22:53:00
5:53 PM,41.0,23.0,49,30.18,10.0,South,3.5,-,N/A,,Clear,180,2012-11-14 23:53:00
6:53 PM,45.0,26.1,48,30.18,10.0,Calm,Calm,-,N/A,,Clear,0,2012-11-15 00:53:00
7:53 PM,43.0,23.0,45,30.18,10.0,South,4.6,-,N/A,,Clear,180,2012-11-15 01:53:00
8:53 PM,41.0,23.0,49,30.18,10.0,East,4.6,-,N/A,,Clear,100,2012-11-15 02:53:00
9:53 PM,37.9,23.0,55,30.19,10.0,Calm,Calm,-,N/A,,Clear,0,2012-11-15 03:53:00
10:53 PM,35.1,23.0,61,30.19,10.0,Calm,Calm,-,N/A,,Clear,0,2012-11-15 04:53:00
11:53 PM,35.1,24.1,64,30.18,10.0,Calm,Calm,-,N/A,,Scattered Clouds,0,2012-11-15 05:53:00